| time (UTC) | temp C | wind direction | speed KPH | gust KPH | rain 1hr cm | rain 24hr cm | rain mn cm | humidity % | barometer mb |
| 20260507021904 | 25 | 338 | 19.3 | 38.6 | 0.00 | 0.00 | 0.00 | 73 | 998.5 |
| 20260507021353 | 25 | 338 | 12.9 | 46.7 | 0.00 | 0.00 | 0.00 | 73 | 997.9 |
| 20260507020846 | 25 | 0 | 25.7 | 46.7 | 0.00 | 0.00 | 0.00 | 73 | 997.8 |
| 20260507020333 | 25 | 0 | 17.7 | 43.5 | 0.00 | 0.00 | 0.00 | 73 | 998.5 |
| 20260507014803 | 25 | 338 | 24.1 | 43.5 | 0.00 | 0.00 | 0.00 | 74 | 998.9 |
| 20260507014252 | 25 | 338 | 20.9 | 43.5 | 0.00 | 0.00 | 0.00 | 74 | 999.4 |
| 20260507013743 | 25 | 315 | 17.7 | 38.6 | 0.00 | 0.00 | 0.00 | 75 | 999.3 |
| 20260507013232 | 25 | 338 | 11.3 | 38.6 | 0.00 | 0.00 | 0.00 | 75 | 999.1 |
| 20260507012212 | 25 | 338 | 6.4 | 40.2 | 0.00 | 0.00 | 0.00 | 75 | 999.0 |
| 20260507011702 | 25 | 338 | 14.5 | 40.2 | 0.00 | 0.00 | 0.00 | 75 | 999.3 |
| 20260507011152 | 25 | 338 | 9.7 | 37.0 | 0.00 | 0.00 | 0.00 | 75 | 999.1 |
| 20260507010642 | 25 | 315 | 24.1 | 38.6 | 0.00 | 0.00 | 0.00 | 75 | 998.9 |
| 20260507010139 | 25 | 338 | 24.1 | 38.6 | 0.00 | 0.00 | 0.00 | 75 | 998.7 |
| 20260507005111 | 25 | 338 | 12.9 | 43.5 | 0.00 | 0.00 | 0.00 | 75 | 998.7 |
| 20260507004601 | 25 | 0 | 20.9 | 43.5 | 0.00 | 0.00 | 0.00 | 75 | 999.0 |
| 20260507004052 | 25 | 0 | 20.9 | 35.4 | 0.00 | 0.00 | 0.00 | 75 | 999.2 |
| 20260507003031 | 25 | 338 | 11.3 | 27.4 | 0.00 | 0.00 | 0.00 | 75 | 999.5 |
| 20260507002522 | 25 | 338 | 6.4 | 33.8 | 0.00 | 0.00 | 0.00 | 75 | 999.3 |
| 20260507002010 | 25 | 338 | 17.7 | 33.8 | 0.00 | 0.00 | 0.00 | 75 | 999.0 |
| 20260507001501 | 25 | 338 | 6.4 | 32.2 | 0.00 | 0.00 | 0.00 | 76 | 999.0 |
| 20260507000951 | 25 | 338 | 8.0 | 22.5 | 0.00 | 0.00 | 0.00 | 76 | 998.8 |
| 20260507000442 | 24 | 0 | 4.8 | 14.5 | 0.00 | 0.00 | 0.00 | 77 | 998.8 |
| 20260506235931 | 23 | 338 | 4.8 | 17.7 | 0.00 | 0.00 | 0.00 | 77 | 999.1 |
| 20260506235420 | 23 | 0 | 3.2 | 17.7 | 0.00 | 0.00 | 0.00 | 77 | 999.3 |
| 20260506234911 | 23 | 23 | 3.2 | 9.7 | 0.00 | 0.00 | 0.00 | 77 | 999.1 |
| 20260506234400 | 23 | 338 | 3.2 | 11.3 | 0.00 | 0.00 | 0.00 | 77 | 999.5 |
| 20260506233850 | 23 | 338 | 3.2 | 11.3 | 0.00 | 0.00 | 0.00 | 76 | 999.9 |
| 20260506232830 | 23 | 23 | 3.2 | 33.8 | 0.00 | 0.00 | 0.00 | 76 | 999.1 |
| 20260506232320 | 23 | 23 | 4.8 | 33.8 | 0.00 | 0.00 | 0.00 | 77 | 998.6 |
| 20260506231259 | 23 | 23 | 4.8 | 17.7 | 0.00 | 0.00 | 0.00 | 78 | 998.7 |
| 20260506230749 | 22 | 45 | 3.2 | 22.5 | 0.00 | 0.00 | 0.00 | 79 | 999.0 |
| 20260506225221 | 22 | 45 | 3.2 | 17.7 | 0.00 | 0.00 | 0.00 | 80 | 999.6 |